SHIYAN-29

Last updated on Sun Jun 21 2026 00:03:09 GMT+0000 (Coordinated Universal Time)

1 65486U 25196A 26171.05415719 -.00000285 00000+0 00000+0 0 9995 2 65486 28.8247 18.4992 0012539 177.1148 186.8195 1.00284739 2918
UTC large
Height (km)
Speed (km/s)
/
Latitude / Longitude
Inclination (degrees)
Orbital Period (minutes)
Azimuth
Elevation
Range (km)
Doppler Factor

Next 0 passes for location: London (51.5072 / 0.1276)

No passes found over London.
SHIYAN-29